VK2OU Weather Reports


Display with metric or nautical units.
time (UTC)temp
F
wind
direction
speed
MPH
gust
MPH
rain 1hr
in
rain 24hr
in
rain mn
in
humidity
%
barometer
mb
20260904061543 57 276 6.0 14.0 0.00 0.00 0.00 59
20260904060531 57 261 3.0 9.0 0.00 0.00 0.00 58
20260904055524 58 277 3.0 5.0 0.00 0.00 0.00 57
20260904054532 60 250 3.0 9.0 0.00 0.00 0.00 55
20260904053523 60 279 6.0 10.0 0.00 0.00 0.00 55
20260904052531 59 276 7.0 18.0 0.00 0.00 0.00 54
20260904051603 57 255 5.0 11.0 0.00 0.00 0.00 58
20260904050531 59 275 7.0 15.0 0.00 0.00 0.00 55
20260904045523 59 290 7.0 15.0 0.00 0.00 0.00 54
20260904044531 59 266 6.0 13.0 0.00 0.00 0.00 55
20260904043523 60 266 5.0 14.0 0.00 0.00 0.00 52
20260904042531 60 258 6.0 13.0 0.00 0.00 0.00 51
20260904041543 60 285 5.0 14.0 0.00 0.00 0.00 52
20260904040531 60 262 7.0 16.0 0.00 0.00 0.00 52
20260904035523 60 262 8.0 16.0 0.00 0.00 0.00 51
20260904034552 60 276 7.0 13.0 0.00 0.00 0.00 51
20260904033523 60 255 5.0 13.0 0.00 0.00 0.00 52
20260904032531 59 265 5.0 13.0 0.00 0.00 0.00 52
20260904031524 60 276 7.0 14.0 0.00 0.00 0.00 53
20260904030532 59 271 6.0 14.0 0.00 0.00 0.00 53
20260904025523 60 268 8.0 17.0 0.00 0.00 0.00 53
20260904024532 59 276 7.0 13.0 0.00 0.00 0.00 56
20260904023524 59 282 6.0 17.0 0.00 0.00 0.00 56
20260904022531 59 287 6.0 13.0 0.00 0.00 0.00 55
20260904021523 58 272 6.0 13.0 0.00 0.00 0.00 55
20260904020531 60 272 8.0 16.0 0.00 0.00 0.00 55
20260904015523 58 259 7.0 15.0 0.00 0.00 0.00 60
20260904014536 58 262 8.0 17.0 0.00 0.00 0.00 59
20260904013544 56 267 5.0 11.0 0.00 0.00 0.00 64
20260904012553 56 266 5.0 10.0 0.00 0.00 0.00 67
20260904011524 56 279 4.0 10.0 0.00 0.00 0.00 68
20260904010531 56 272 4.0 8.0 0.00 0.00 0.00 66
20260904005524 55 262 3.0 8.0 0.00 0.00 0.00 69
20260904004532 55 262 3.0 8.0 0.00 0.00 0.00 71
20260904003524 54 276 4.0 8.0 0.00 0.00 0.00 75
20260904002531 55 282 4.0 9.0 0.00 0.00 0.00 73
20260904001549 54 255 2.0 6.0 0.00 0.00 0.00 77
20260904000531 53 271 5.0 10.0 0.00 0.00 0.00 80
20260903235523 52 283 4.0 9.0 0.00 0.00 0.00 81
20260903234551 52 279 3.0 7.0 0.00 0.00 0.00 82
20260903233524 52 287 4.0 9.0 0.00 0.00 0.00 81
20260903232532 51 295 3.0 6.0 0.00 0.00 0.00 86
20260903231524 50 267 5.0 9.0 0.00 0.00 0.00 86
20260903230611 50 276 4.0 7.0 0.00 0.00 0.00 91
20260903225524 48 266 2.0 6.0 0.00 0.00 0.00 95
20260903224532 47 259 2.0 5.0 0.00 0.00 0.00 97
20260903223524 47 262 3.0 6.0 0.00 0.00 0.00 98
20260903222532 46 276 1.0 5.0 0.00 0.00 0.00 98
20260903221524 45 269 0.0 2.0 0.00 0.00 0.00 99
20260903220532 45 272 0.0 2.0 0.00 0.00 0.00 99
20260903215524 44 0.0 0.0 0.00 0.00 0.00 99
20260903214533 43 0.0 0.0 0.00 0.00 0.00 99
20260903213523 43 165 0.0 1.0 0.00 0.00 0.00 99
20260903212551 43 0.0 0.0 0.00 0.00 0.00 98
20260903211604 43 0.0 0.0 0.00 0.00 0.00 98
20260903210532 43 353 0.0 2.0 0.00 0.00 0.00 99
20260903205523 43 0.0 0.0 0.00 0.00 0.00 99
20260903204532 43 0.0 0.0 0.00 0.00 0.00 99
20260903203544 42 0.0 0.0 0.00 0.00 0.00 98
20260903202531 42 0.0 0.0 0.00 0.00 0.00 98
20260903201524 42 217 0.0 2.0 0.00 0.00 0.00 98
20260903200532 42 247 1.0 3.0 0.00 0.00 0.00 98
20260903195524 42 181 0.0 2.0 0.00 0.00 0.00 98
20260903194532 42 175 1.0 2.0 0.00 0.00 0.00 98
20260903193524 41 174 0.0 1.0 0.00 0.00 0.00 98
20260903192533 41 199 0.0 1.0 0.00 0.00 0.00 98
20260903191524 40 205 0.0 2.0 0.00 0.00 0.00 98
20260903190552 40 187 0.0 2.0 0.00 0.00 0.00 97
20260903185524 40 201 0.0 2.0 0.00 0.00 0.00 97
20260903184532 39 175 0.0 2.0 0.00 0.00 0.00 97
20260903183544 39 200 0.0 1.0 0.00 0.00 0.00 97
20260903182552 39 210 0.0 2.0 0.00 0.00 0.00 96
20260903181524 40 195 0.0 2.0 0.00 0.00 0.00 96
20260903180531 41 0.0 0.0 0.00 0.00 0.00 96
20260903175524 40 0.0 0.0 0.00 0.00 0.00 96
20260903174532 40 0.0 0.0 0.00 0.00 0.00 96
20260903173544 41 0.0 0.0 0.00 0.00 0.00 96
20260903172532 41 0.0 0.0 0.00 0.00 0.00 95
20260903171524 41 0.0 0.0 0.00 0.00 0.00 95
20260903170532 42 0.0 0.0 0.00 0.00 0.00 94
20260903165524 41 0.0 0.0 0.00 0.00 0.00 93
20260903164532 41 0.0 0.0 0.00 0.00 0.00 91
20260903163524 42 124 0.0 2.0 0.00 0.00 0.00 90
20260903162532 43 239 0.0 1.0 0.00 0.00 0.00 89
20260903161524 44 84 0.0 2.0 0.00 0.00 0.00 86
20260903160531 44 250 0.0 2.0 0.00 0.00 0.00 87
20260903155523 44 253 2.0 3.0 0.00 0.00 0.00 87
20260903154532 44 269 1.0 3.0 0.00 0.00 0.00 86
20260903153524 45 118 0.0 2.0 0.00 0.00 0.00 84
20260903152532 45 265 2.0 3.0 0.00 0.00 0.00 83
20260903151524 45 272 2.0 5.0 0.00 0.00 0.00 84
20260903150552 45 269 1.0 2.0 0.00 0.00 0.00 84
20260903145524 45 256 0.0 1.0 0.00 0.00 0.00 86
20260903144532 44 249 0.0 1.0 0.00 0.00 0.00 86
20260903143524 44 320 1.0 3.0 0.00 0.00 0.00 86
20260903142532 44 288 1.0 2.0 0.00 0.00 0.00 87
20260903141544 44 244 0.0 1.0 0.00 0.00 0.00 86
20260903140532 44 0.0 0.0 0.00 0.00 0.00 84
20260903135524 45 205 0.0 1.0 0.00 0.00 0.00 82
20260903134532 46 256 2.0 5.0 0.00 0.00 0.00 80
20260903133525 46 265 3.0 6.0 0.00 0.00 0.00 80
20260903132532 46 259 3.0 7.0 0.00 0.00 0.00 82
20260903131524 45 241 1.0 3.0 0.00 0.00 0.00 83
20260903130532 46 200 0.0 1.0 0.00 0.00 0.00 81
20260903125525 46 258 2.0 5.0 0.00 0.00 0.00 81
20260903124532 46 269 3.0 6.0 0.00 0.00 0.00 84
20260903123524 44 262 2.0 5.0 0.00 0.00 0.00 89
20260903122532 44 0.0 0.0 0.00 0.00 0.00 88
20260903121524 45 0.0 0.0 0.00 0.00 0.00 86
20260903120532 45 138 0.0 1.0 0.00 0.00 0.00 85
20260903115524 45 266 1.0 3.0 0.00 0.00 0.00 85
20260903114532 45 177 0.0 1.0 0.00 0.00 0.00 85
20260903113524 46 203 0.0 1.0 0.00 0.00 0.00 83
20260903112532 46 260 2.0 6.0 0.00 0.00 0.00 82
20260903111524 46 262 2.0 5.0 0.00 0.00 0.00 82
20260903110532 47 259 2.0 3.0 0.00 0.00 0.00 79
20260903105604 48 268 2.0 6.0 0.00 0.00 0.00 78
20260903104532 48 268 3.0 6.0 0.00 0.00 0.00 78
20260903103524 48 270 3.0 8.0 0.00 0.00 0.00 78
20260903102531 48 264 2.0 7.0 0.00 0.00 0.00 78
20260903101524 48 272 2.0 5.0 0.00 0.00 0.00 78
20260903100552 48 266 2.0 5.0 0.00 0.00 0.00 78
20260903095524 48 251 1.0 3.0 0.00 0.00 0.00 78
20260903094533 49 270 3.0 8.0 0.00 0.00 0.00 77
20260903093545 48 286 5.0 10.0 0.00 0.00 0.00 77
20260903092532 49 269 5.0 9.0 0.00 0.00 0.00 77
20260903091524 49 275 4.0 9.0 0.00 0.00 0.00 77
20260903090532 49 286 4.0 9.0 0.00 0.00 0.00 77
20260903085523 49 275 4.0 8.0 0.00 0.00 0.00 77
20260903084532 49 272 2.0 6.0 0.00 0.00 0.00 76
20260903083524 49 269 4.0 7.0 0.00 0.00 0.00 75
20260903082532 49 285 4.0 8.0 0.00 0.00 0.00 76
20260903081544 49 269 1.0 5.0 0.00 0.00 0.00 75
20260903080532 50 285 3.0 7.0 0.00 0.00 0.00 74
20260903075544 50 274 3.0 7.0 0.00 0.00 0.00 73
20260903073525 51 253 3.0 10.0 0.00 0.00 0.00 70
20260903072531 52 271 4.0 9.0 0.00 0.00 0.00 69
20260903071524 53 264 6.0 14.0 0.00 0.00 0.00 67
20260903070532 54 266 8.0 17.0 0.00 0.00 0.00 65
20260903065524 54 269 7.0 15.0 0.00 0.00 0.00 65
20260903064533 55 266 9.0 18.0 0.00 0.00 0.00 63
20260903063544 55 274 9.0 21.0 0.00 0.00 0.00 64
20260903062532 55 277 11.0 21.0 0.00 0.00 0.00 63